Location: Recife
(8.0585°S, 34.8848°W)
Time: 10:51:33
(UTC-03:00)

Transit 2A Rocket - Pass Details

Date: 23 April 2026
Orbit: 587 x 895 km, 66.7° (Epoch: 14 May)

Event Time Altitude Azimuth Distance (km) Brightness Sun altitude
Rises 09:59:42 0° 348° (NNW) 2,809 8.2 61.6°
Reaches altitude 10° 10:01:57 10° 353° (N) 1,902 7.5 62.0°
Maximum altitude 10:06:06 55° 71° (ENE) 707 6.8 62.7°
Drops below altitude 10° 10:10:20 10° 148° (SSE) 1,941 7.1 63.3°
Sets 10:12:39 0° 153° (SSE) 2,873 7.9 63.7°
